Location: 22
(39.7117°N, 89.5929°W)
Time: 10:25:16
(UTC-05:00)

Courier 1B - Pass Details

Date: 29 January 2023
Orbit: 962 x 1209 km, 28.3° (Epoch: 26 March)

Event Time Altitude Azimuth Distance (km) Brightness Sun altitude
Rises 19:06:05 0° 257° (WSW) 3,666 12.0 -21.6°
Reaches altitude 10° 19:09:48 10° 237° (WSW) 2,747 10.7 -22.3°
Maximum altitude 19:13:38 16° 201° (SSW) 2,370 9.8 -23.0°
Drops below altitude 10° 19:17:34 10° 166° (SSE) 2,832 9.8 -23.8°
Enters shadow 19:19:24 - 155° (SSE) 3,256 10.0 -24.1°
